Weather in Prostorny

Russia / Tomsk District     56°24′55″N   85°00′56″E
temp.,
°C
wind,
m/s
gust,
m/s
humid.,
%
clouds,
%
prec.,
mm/h
press.,
hPa
HPBL,
m
27 february, sat
sat2701:00−25sw4995100 0.1 1032606
04:00−26sw3897100 0.1 1033548
07:00−25sw3896100 0.3 1034574
10:00−25sw4894100 0.1 1035617
13:00−23sw4690100 0.1 1035718
16:00−22sw4689100 0.1 1035734
19:00−24sw2496100 0.1 103696
22:00−26sw3698100 0.0 1037153
28 february, sun
sun2801:00−28ssw249999 0.0 103785
04:00−30ssw239992 0.0 103870
07:00−31ssw239987 0.0 103851
10:00−29s369685 0.0 1038203
13:00−23s359288 0.0 1036325
16:00−19s258880 0.0 1033425
19:00−20se239488 0.0 103138
22:00−20ese3595100 0.0 1028121
1 march, mon
mon101:00−18e3696100 0.0 1025168
04:00−17e4796100 0.1 1022201
07:00−15e4895100 0.6 1018268
10:00−13e4995100 0.6 1016272
13:00−11ene5893100 1.2 1013334
16:00−10ene51193100 0.4 1011370
19:00−12ene61393100 1.5 1010459
22:00−13ne51194100 0.9 1011493
2 march, tue
tue201:00−15ne41191100 1.1 1012437
04:00−18ne3895100 0.0 1014236
07:00−20ne2796100 0.0 1017194
10:00−18ene3795100 0.1 1017345
13:00−16ene3693100 0.4 1017400
16:00−14ene3592100 0.3 1017457
19:00−16ene3695100 0.5 1017301
22:00−17ene3895100 0.3 1018327
3 march, wed
wed301:00−17ene379597 0.3 1017299
04:00−20ene379696 0.0 1016220
07:00−20ene389697 0.1 1017267
10:00−19ene4794100 0.1 1017362
13:00−17ene4692100 0.1 1017414
16:00−17ene4792100 0.1 1017451
19:00−18ne3795100 0.3 1020449
22:00−20ne379590 0.1 1022274